FLOCK 4V 12

导读

FLOCK 4V 12是美国发射的Flock 4V卫星群中的成员,于2020年9月3日发射升空,属于行星实验室(Planet Labs)的地球观测卫星星座。该卫星采用立方体卫星设计,配备光学成像载荷,主要负责获取全球高分辨率光学遥感影像,可服务于农业监测、自然资源管理、灾害应急响应、地图绘制等多个领域,是Planet Labs构建的 daily地球观测能力中的重要组成部分。

基本信息
目录编号:
46283
目录名称:
FLOCK 4V 12
国际标识:
2020-061M
轨道中心:
EARTH
卫星名称:
FLOCK 4V 12
卫星全名:
--
卫星状态:
已陨落 最后检测时间 2024-02-24
发射日期:
2020-09-03 UTC
国别 :
美国 (US)
星等 :
--
轨道信息
数据来源 国际轨道数据
星历时间: 2024-02-23T20:03:40+0800
轨道信息已过期871天
半长轴: 6545.893km
偏心率: 0.0012615
轨道倾角: 97.334°
近地点辐角 280.276°
升交点赤经 134.534°
平近点角 79.712°
近地点: 159.5km
远地点: 176.016km
周期: 87.844分钟
每日圈数: 16.392662
详细信息
使用方式:
暂无